Location: San Gennaro Vesuviano
(40.8833°N, 14.5333°E)
Time: 09:56:28
(UTC+00:00)

Cosmos 44 - Pass Details

Date: 22 April 2021
Orbit: 571 x 791 km, 65.1° (Epoch: 10 May)

Event Time Altitude Azimuth Distance (km) Brightness Sun altitude
Rises 18:14:12 0° 215° (SW) 3,069 6.8 -5.3°
Reaches altitude 10° 18:16:28 10° 217° (SW) 2,189 6.1 -5.7°
Maximum altitude 18:21:30 75° 303° (WNW) 775 3.8 -6.6°
Drops below altitude 10° 18:26:51 10° 29° (NNE) 2,323 6.0 -7.5°
Sets 18:29:20 0° 31° (NNE) 3,272 6.7 -8.0°
